Regional Weather Roundup
Issued by NWS

Home | Current Version | Previous Version | Graphics & Text | Print | Product List | Glossary On
Versions: 1 2 3 4 5 6 7 8 9 10 11 12 13 14 15 16 17 18 19 20 21 22 23 24 25 26 27 28 29 30 31 32 33 34 35 36 37 38 39 40 41 42 43 44 45 46 47 48 49 50
000
ASUS45 KSLC 011910
RWRUT

UTAH REGIONAL WEATHER ROUNDUP
NATIONAL WEATHER SERVICE SALT LAKE CITY UT
1200 PM MST SUN MAR 01 2015

UTZ001>011-023>025-012000-

NORTHERN UTAH

CITY           SKY/WX    TMP DP  RH WIND       PRES   REMARKS
BRIGHAM CITY   SUNNY     43  19  38 N6        30.10S
HILL AFB       SUNNY     43  22  42 E7        30.08F
LOGAN          SUNNY     38  18  44 N6        30.11F WCI  33
OGDEN          SUNNY     44  22  41 SE7       30.08F
PROVO AIRPORT  PTSUNNY   39  32  75 CALM      30.10F
SALT LAKE CITY PTSUNNY   43  29  57 N7        30.09F
VERNAL         CLOUDY    34  23  64 E3        30.13S
WENDOVER       SUNNY     43  16  33 SE7       30.11S
HEBER CITY     CLOUDY    34  25  69 CALM      30.08F
WEST JORDAN    CLOUDY    39  30  70 E3        30.09S

$$

UTZ012>022-026-027-012000-

SOUTHERN/CENTRAL UTAH

CITY           SKY/WX    TMP DP  RH WIND       PRES   REMARKS
BLANDING       CLOUDY    34  33  98 NE7       30.17S WCI  27
BRYCE CANYON   LGT SNOW  30  25  81 NE3       30.05F
CEDAR CITY     PTSUNNY   34  27  75 W3        30.02F
DELTA          CLOUDY    39  31  73 CALM      30.09R
HANKSVILLE     CLOUDY    37  34  87 CALM      30.14S
MILFORD        CLOUDY    38  29  70 N9        30.06F WCI  31
MOAB/CYNLANDS  MOSUNNY   44  33  65 VRB3      30.09R
PRICE          PTSUNNY   39  28  64 S8        30.09R WCI  33
ST GEORGE      MOCLDY    48  36  61 W3        30.04F
KANAB          CLOUDY    37  37 100 NW12      30.07F WCI  30

$$

REGIONAL REPORTS     COLORADO/ARIZONA

CITY           SKY/WX    TMP DP  RH WIND       PRES   REMARKS
CRAIG, CO      PTSUNNY   27  19  72 CALM      30.14S
GRAND JUNCTION CLOUDY    43  31  62 CALM      30.09S
RIFLE          CLOUDY    41  27  57 CALM      30.09F
MONTROSE       CLOUDY    39  31  72 NE5       30.11S
CORTEZ         MIX PCPN  35  34  96 SW6       30.09S WCI  30
PAGE, AZ       LGT RAIN  39  35  86 N6        30.07S WCI  35
GRAND CANYON   SNOW      33  32  96 SE5       30.04F VSB 1/2 WCI  29
KINGMAN        CLOUDY    52  36  54 VRB3      29.99S
FLAGSTAFF      SNOW      33  30  88 NE5       30.06R VSB 1/2 WCI  29

$$

REGIONAL REPORTS    NEVADA/IDAHO/WYOMING

CITY           SKY/WX    TMP DP  RH WIND       PRES   REMARKS
LAS VEGAS, NV  CLOUDY    54  33  45 CALM      29.96S
ELY            MOSUNNY   33  27  78 CALM      30.04F
ELKO           SUNNY     42  22  44 N9        30.05F
POCATELLO, ID  SUNNY     35   8  32 NE10      30.16F WCI  27
BURLEY         SUNNY     37   3  24 E12       30.15F WCI  29
EVANSTON, WY   PTSUNNY   22  17  81 E15       30.09S WCI   9
ROCK SPRINGS   SUNNY     23  11  60 E5        30.13F WCI  17

$$



USA.gov is the U.S. government's official web portal to all federal, state and local government web resources and services.